When you browse on this site, cookies collect data to enhance your experience and personalize the content and advertising you see.
Visit our Privacy Policy to learn more. By continuing to use the site, you agree to this use of cookies and data.
  • In Österreich
  • Länderverzeichnis
  • Für 7 Tage
  • Wassertemperatur
  • Satellitenkarten
  • Wetterkarte
  • News
  • Widgets
  • user-avatar
    Anmelden

    Stündliche Wetter Kalat

    Heute, 19 Juni, Mittwoch

    Zeit Temperatur Niederschläge Wind Luftdruck Luftfeuchtigkeit
    00:00 +3°C° 0 mm 1 m/S 474 mmHg 73%
    01:00 +2°C° 0 mm 1 m/S 474 mmHg 74%
    02:00 +2°C° 0 mm 1 m/S 473 mmHg 74%
    03:00 +2°C° 0 mm 1 m/S 473 mmHg 75%
    04:00 +1°C° 0 mm 1 m/S 473 mmHg 75%
    05:00 -1°C° 0 mm 1 m/S 472 mmHg 79%
    06:00 +1°C° 0 mm 1 m/S 472 mmHg 75%
    07:00 +2°C° 0 mm 1 m/S 473 mmHg 72%
    08:00 +3°C° 0 mm 1 m/S 474 mmHg 68%
    09:00 +4°C° 0 mm 1 m/S 475 mmHg 64%
    10:00 +5°C° 0 mm 1 m/S 475 mmHg 60%
    11:00 +6°C° 0 mm 1 m/S 476 mmHg 56%
    12:00 +7°C° 0 mm 1 m/S 477 mmHg 55%
    13:00 +8°C° 0 mm 1 m/S 477 mmHg 54%
    14:00 +9°C° 0 mm 1 m/S 478 mmHg 53%
    15:00 +9°C° 0.2 mm 1 m/S 477 mmHg 53%
    16:00 +8°C° 0.2 mm 2 m/S 477 mmHg 54%
    17:00 +7°C° 0.2 mm 2 m/S 477 mmHg 55%
    18:00 +6°C° 0.3 mm 2 m/S 476 mmHg 58%
    19:00 +6°C° 0.3 mm 1 m/S 476 mmHg 62%
    20:00 +5°C° 0.3 mm 1 m/S 475 mmHg 65%
    21:00 +5°C° 0 mm 1 m/S 475 mmHg 67%
    22:00 +4°C° 0 mm 1 m/S 475 mmHg 69%
    23:00 +4°C° 0 mm 1 m/S 475 mmHg 72%

    Morgen, 20 Juni, Donnerstag

    Zeit Temperatur Niederschläge Wind Luftdruck Luftfeuchtigkeit
    00:00 +4°C° 0 mm 1 m/S 475 mmHg 73%
    01:00 +3°C° 0 mm 1 m/S 474 mmHg 74%
    02:00 +3°C° 0 mm 1 m/S 474 mmHg 76%
    03:00 +3°C° 0 mm 1 m/S 474 mmHg 77%
    04:00 +3°C° 0 mm 1 m/S 474 mmHg 77%
    05:00 +2°C° 0 mm 1 m/S 474 mmHg 78%
    06:00 +3°C° 0 mm 1 m/S 474 mmHg 75%
    07:00 +4°C° 0 mm 1 m/S 475 mmHg 72%
    08:00 +5°C° 0 mm 1 m/S 476 mmHg 68%
    09:00 +6°C° 0 mm 1 m/S 476 mmHg 63%
    10:00 +7°C° 0 mm 1 m/S 477 mmHg 57%
    11:00 +7°C° 0 mm 0 m/S 478 mmHg 52%
    12:00 +9°C° 0.1 mm 1 m/S 478 mmHg 49%
    13:00 +9°C° 0.1 mm 1 m/S 478 mmHg 45%
    14:00 +9°C° 0.1 mm 2 m/S 479 mmHg 42%
    15:00 +8°C° 0.3 mm 2 m/S 478 mmHg 47%
    16:00 +8°C° 0.3 mm 2 m/S 478 mmHg 52%
    17:00 +7°C° 0.3 mm 2 m/S 477 mmHg 57%
    18:00 +6°C° 0.1 mm 2 m/S 477 mmHg 60%
    19:00 +6°C° 0.1 mm 2 m/S 477 mmHg 62%
    20:00 +6°C° 0.1 mm 1 m/S 477 mmHg 65%
    21:00 +6°C° 0.1 mm 1 m/S 477 mmHg 68%
    22:00 +5°C° 0.1 mm 1 m/S 476 mmHg 71%
    23:00 +5°C° 0.1 mm 1 m/S 476 mmHg 74%

    übermorgen, 21 Juni, Freitag

    Zeit Temperatur Niederschläge Wind Luftdruck Luftfeuchtigkeit
    00:00 +4°C° 0 mm 0 m/S 476 mmHg 75%
    01:00 +4°C° 0 mm 0 m/S 476 mmHg 76%
    02:00 +3°C° 0 mm 0 m/S 476 mmHg 77%
    03:00 +3°C° 0 mm 0 m/S 475 mmHg 78%
    04:00 +3°C° 0 mm 0 m/S 475 mmHg 79%
    05:00 +2°C° 0 mm 0 m/S 475 mmHg 80%
    06:00 +3°C° 0 mm 0 m/S 476 mmHg 73%
    07:00 +4°C° 0 mm 0 m/S 476 mmHg 65%
    08:00 +5°C° 0 mm 0 m/S 477 mmHg 58%
    09:00 +7°C° 0 mm 0 m/S 478 mmHg 52%
    10:00 +9°C° 0 mm 1 m/S 479 mmHg 45%
    11:00 +10°C° 0 mm 1 m/S 480 mmHg 39%
    12:00 +11°C° 0 mm 1 m/S 480 mmHg 38%
    13:00 +11°C° 0 mm 1 m/S 480 mmHg 38%
    14:00 +12°C° 0 mm 2 m/S 480 mmHg 37%
    15:00 +10°C° 0.1 mm 2 m/S 480 mmHg 42%
    16:00 +10°C° 0.1 mm 3 m/S 480 mmHg 46%
    17:00 +10°C° 0.1 mm 3 m/S 479 mmHg 51%
    18:00 +9°C° 0.1 mm 2 m/S 479 mmHg 55%
    19:00 +8°C° 0.1 mm 2 m/S 478 mmHg 59%
    20:00 +8°C° 0.1 mm 1 m/S 478 mmHg 64%
    21:00 +8°C° 0.1 mm 1 m/S 478 mmHg 66%
    22:00 +7°C° 0.1 mm 1 m/S 478 mmHg 68%
    23:00 +6°C° 0.1 mm 0 m/S 478 mmHg 70%

    22 Juni, Samstag

    Zeit Temperatur Niederschläge Wind Luftdruck Luftfeuchtigkeit
    00:00 +6°C° 0 mm 0 m/S 477 mmHg 71%
    01:00 +6°C° 0 mm 0 m/S 477 mmHg 73%
    02:00 +5°C° 0 mm 0 m/S 477 mmHg 74%
    03:00 +5°C° 0 mm 0 m/S 476 mmHg 75%
    04:00 +4°C° 0 mm 0 m/S 476 mmHg 76%
    05:00 +5°C° 0 mm 1 m/S 476 mmHg 77%
    06:00 +6°C° 0 mm 1 m/S 477 mmHg 71%
    07:00 +7°C° 0 mm 1 m/S 477 mmHg 66%
    08:00 +8°C° 0 mm 1 m/S 478 mmHg 61%
    09:00 +9°C° 0.1 mm 1 m/S 479 mmHg 56%
    10:00 +10°C° 0.1 mm 1 m/S 480 mmHg 51%
    11:00 +11°C° 0.1 mm 1 m/S 480 mmHg 46%
    12:00 +11°C° 0.2 mm 1 m/S 480 mmHg 49%
    13:00 +10°C° 0.2 mm 2 m/S 480 mmHg 51%
    14:00 +10°C° 0.2 mm 2 m/S 480 mmHg 54%
    15:00 +10°C° 0.6 mm 2 m/S 480 mmHg 55%
    16:00 +10°C° 0.6 mm 2 m/S 480 mmHg 56%
    17:00 +10°C° 0.6 mm 2 m/S 479 mmHg 57%
    18:00 +9°C° 0.1 mm 2 m/S 479 mmHg 58%
    19:00 +8°C° 0.1 mm 2 m/S 479 mmHg 58%
    20:00 +8°C° 0.1 mm 3 m/S 479 mmHg 59%
    21:00 +7°C° 0 mm 2 m/S 479 mmHg 61%
    22:00 +7°C° 0 mm 2 m/S 479 mmHg 63%
    23:00 +6°C° 0 mm 2 m/S 478 mmHg 66%

    23 Juni, Sonntag

    Zeit Temperatur Niederschläge Wind Luftdruck Luftfeuchtigkeit
    00:00 +5°C° 0 mm 2 m/S 478 mmHg 67%
    01:00 +5°C° 0 mm 2 m/S 477 mmHg 68%
    02:00 +5°C° 0 mm 2 m/S 477 mmHg 69%
    03:00 +5°C° 0 mm 1 m/S 477 mmHg 71%
    04:00 +5°C° 0 mm 1 m/S 476 mmHg 72%
    05:00 +4°C° 0 mm 1 m/S 476 mmHg 73%
    06:00 +5°C° 0 mm 1 m/S 476 mmHg 75%
    07:00 +5°C° 0 mm 1 m/S 477 mmHg 69%
    08:00 +6°C° 0 mm 1 m/S 477 mmHg 63%
    09:00 +8°C° 0 mm 1 m/S 478 mmHg 56%
    10:00 +9°C° 0 mm 1 m/S 479 mmHg 50%
    11:00 +10°C° 0 mm 1 m/S 480 mmHg 43%
    12:00 +11°C° 0 mm 1 m/S 480 mmHg 41%
    13:00 +12°C° 0 mm 2 m/S 480 mmHg 39%
    14:00 +13°C° 0 mm 2 m/S 481 mmHg 38%
    15:00 +12°C° 0.3 mm 2 m/S 480 mmHg 44%
    16:00 +10°C° 0.3 mm 2 m/S 479 mmHg 49%
    17:00 +10°C° 0.3 mm 2 m/S 479 mmHg 55%
    18:00 +9°C° 0.3 mm 2 m/S 478 mmHg 58%
    19:00 +8°C° 0.3 mm 2 m/S 478 mmHg 60%
    20:00 +9°C° 0.3 mm 1 m/S 478 mmHg 63%
    21:00 +8°C° 0 mm 1 m/S 478 mmHg 66%
    22:00 +7°C° 0 mm 2 m/S 478 mmHg 68%
    23:00 +6°C° 0 mm 2 m/S 478 mmHg 70%

    24 Juni, Montag

    Zeit Temperatur Niederschläge Wind Luftdruck Luftfeuchtigkeit
    00:00 +7°C° 0 mm 1 m/S 477 mmHg 72%
    01:00 +6°C° 0 mm 1 m/S 477 mmHg 74%
    02:00 +6°C° 0 mm 1 m/S 476 mmHg 77%
    03:00 +5°C° 0 mm 1 m/S 476 mmHg 78%
    04:00 +5°C° 0 mm 1 m/S 476 mmHg 80%
    05:00 +4°C° 0 mm 0 m/S 475 mmHg 81%
    06:00 +5°C° 0 mm 0 m/S 476 mmHg 75%
    07:00 +5°C° 0 mm 0 m/S 477 mmHg 69%
    08:00 +6°C° 0 mm 0 m/S 478 mmHg 62%
    09:00 +9°C° 0 mm 1 m/S 478 mmHg 56%
    10:00 +10°C° 0 mm 1 m/S 479 mmHg 50%
    11:00 +11°C° 0 mm 1 m/S 480 mmHg 44%
    12:00 +12°C° 0.2 mm 2 m/S 480 mmHg 43%
    13:00 +12°C° 0.2 mm 2 m/S 480 mmHg 42%
    14:00 +12°C° 0.2 mm 3 m/S 480 mmHg 41%
    15:00 +12°C° 0.4 mm 3 m/S 480 mmHg 44%
    16:00 +11°C° 0.4 mm 3 m/S 479 mmHg 48%
    17:00 +10°C° 0.4 mm 3 m/S 479 mmHg 52%
    18:00 +10°C° 0.2 mm 3 m/S 479 mmHg 54%
    19:00 +9°C° 0.2 mm 2 m/S 478 mmHg 56%
    20:00 +9°C° 0.2 mm 2 m/S 478 mmHg 59%
    21:00 +8°C° 0 mm 2 m/S 478 mmHg 62%
    22:00 +8°C° 0 mm 2 m/S 478 mmHg 65%
    23:00 +8°C° 0 mm 1 m/S 478 mmHg 68%
    Mehr zeigen